Regional Weather Roundup
Issued by NWS Newport/Morehead, NC

Current Version | Previous Version | Graphics & Text | Print | Product List | Glossary Off
Versions: 1 2 3 4 5 6 7 8 9 10 11 12 13 14 15 16 17 18 19 20 21 22 23 24 25 26 27 28 29 30 31 32 33 34 35 36 37 38 39 40 41 42 43 44 45 46 47 48 49 50

000
ASUS42 KMHX 281512
RWRMHX
WEATHER ROUNDUP FOR EASTERN NORTH CAROLINA
NATIONAL WEATHER SERVICE NEWPORT/MOREHEAD CITY NC
1000 AM EST SAT FEB 28 2015

NOTE: "FAIR" INDICATES FEW OR NO CLOUDS BELOW 12,000 FEET
WITH NO SIGNIFICANT WEATHER AND/OR OBSTRUCTIONS TO VISIBILITY

NCZ015>017-031-032-045>047-102-103-281600-
NORTH COAST

CITY           SKY/WX    TMP DP  RH WIND       PRES   REMARKS
EDENTON        MOSUNNY   32  16  51 NE10      30.80R
ELIZABETH CITY MOSUNNY   32  16  51 N12       30.81R
KITTY HAWK     SUNNY     34  22  60 N10G17    30.77R
MANTEO         SUNNY     34  21  60 N16G25    30.78R

$$

NCZ045>047-081-094-103-104-281600-
CENTRAL COAST

CITY           SKY/WX    TMP DP  RH WIND       PRES   REMARKS
FRISCO         PTSUNNY   36  28  73 NE16G29   30.71R
SWANQUARTER      N/A     36 N/A N/A NE14G22   30.71S

$$

NCZ095-097-098-100-101-281600-
SOUTHERN COAST

CITY           SKY/WX    TMP DP  RH WIND       PRES   REMARKS
BEAUFORT       PTSUNNY   36  26  67 NE17G26   30.72R
CEDAR ISLAND     N/A     36 N/A N/A N15G28    30.77R
JACKSONVILLE   MOSUNNY   36  23  59 N16       30.73R
PINEY ISLAND     N/A    N/A N/A N/A MISG      30.73R
WILMINGTON     PTSUNNY   37  26  64 N15       30.71R


$$

NCZ011>013-027>030-043-044-078>080-089-090>093-098-281600-
COASTAL PLAIN

CITY           SKY/WX    TMP DP  RH WIND       PRES   REMARKS
AHOSKIE        MOSUNNY   28   7  41 N10G21    30.82S WCI  18
CLINTON        SUNNY     34  19  54 N15G22    30.75S
ELIZABETHTOWN  SUNNY     36  22  57 NE5       30.72F
GOLDSBORO      PTSUNNY   31  25  77 N13       30.76R
GREENVILLE     SUNNY     32  19  59 NE10      30.78R
HAVELOCK       PTSUNNY   36  21  54 NE16      30.75R
KENANSVILLE    SUNNY     34  19  53 NE8       30.76R
KINSTON        SUNNY     34  19  55 NE13      30.78R
NEW BERN       MOSUNNY   36  22  56 NE10      30.76R
RICHLANDS      MOSUNNY   34  19  55 NE14G21   30.74S
ROCKY MOUNT    CLOUDY    30  10  43 NE12      30.80S
WASHINGTON     SUNNY     33  17  51 NE13G18   30.78S
WHITEVILLE     SUNNY     36  23  59 NE9G17    30.70S

$$

AMZ130-135-150-152-154-156-158-170-250-252-270-ANZ085-086-088-633-658-670-281600-
MARINE OBSERVATIONS

STATION/POSITION TIME  TEMP    WIND        PRES    WAVE   SWELL
                       AIR SEA DIR/SP/G            HT/PER HT/PER
                 (UTC) (F)     (DEG/KT/KT) (MB)    (FT/S) (FT/S)
CHESAPEAKE LIGHT 1400   26      10/ 15/ 17 1043.3
64 E VA BEACH    1450   36 52   10/ 21/ 27 1040.2    6/10   3/10
DUCK             1406   30 34   20/ 19/ 22 1041.0
2 E DUCK         1411      34                N/A     6/ 6   2/11
10 NE DUCK       1422      37                N/A     7/ 6   2/11
OREGON INLET     1406   33 37  360/ 17/ 22 1040.8
HATTERAS CG      1400   35 39   20/ 25/ 29 1039.7
CAPE LOOKOUT     1500   36      20/ 18/ 24 1039.4
BEAUFORT LAB     1400   34 40   20/ 19/ 24 1038.5
27 SE WRIGHTSVLE NOT AVBL
5 SE WRIGHTSVLE  NOT AVBL
225 S CAPE HAT   1450   66 69   50/ 19/ 27 1032.4    9/ 8   5/11
41 SE CHARLESTON 1450   53 65   40/ 27/ 33 1033.8    8/ 7

$$



USA.gov is the U.S. government's official web portal to all federal, state and local government web resources and services.